N18NR KFLL-KEYW

Flight info

Callsign N18NR
Flight time 1h 19m
Altitude 8000
Route MAYNR3 MAYNR FNTSY FNTSY1
Aircraft C208/L-SDFGR/C

Departure

Time 2026-05-03 21:39
Airport Fort Lauderdale Hollywood International Airport (KFLL)

Arrival

Time 2026-05-03 22:58
Airport Key West International Airport (KEYW)
Time Latitude Longitude Altitude Speed Heading
2026-05-03 20:48 26.06827 -80.15630 24 ft 0 kts 269°
2026-05-03 21:23 26.06804 -80.15652 24 ft 13 kts 231°
2026-05-03 21:23 26.06801 -80.15653 24 ft 1 kts 288°
2026-05-03 21:23 26.06800 -80.15651 24 ft 1 kts 288°
2026-05-03 21:23 26.06800 -80.15650 24 ft 0 kts 288°
2026-05-03 21:24 26.06805 -80.15653 24 ft 0 kts 342°
2026-05-03 21:24 26.06798 -80.15651 24 ft 1 kts
2026-05-03 21:25 26.06809 -80.15652 24 ft 0 kts 309°
2026-05-03 21:25 26.06805 -80.15646 24 ft 4 kts 300°
2026-05-03 21:25 26.06804 -80.15645 24 ft 0 kts 310°
2026-05-03 21:25 26.06825 -80.15640 24 ft 6 kts 33°
2026-05-03 21:26 26.06859 -80.15602 25 ft 8 kts 48°
2026-05-03 21:26 26.06908 -80.15519 26 ft 16 kts 80°
2026-05-03 21:26 26.06914 -80.15400 25 ft 14 kts 92°
2026-05-03 21:26 26.06888 -80.15308 26 ft 13 kts 149°
2026-05-03 21:27 26.06805 -80.15306 28 ft 12 kts 188°
2026-05-03 21:27 26.06754 -80.15373 29 ft 12 kts 215°
2026-05-03 21:27 26.06698 -80.15428 28 ft 12 kts 269°
2026-05-03 21:27 26.06698 -80.15519 26 ft 11 kts 271°
2026-05-03 21:28 26.06698 -80.15530 28 ft 1 kts 271°
2026-05-03 21:28 26.06698 -80.15544 28 ft 1 kts 268°
2026-05-03 21:28 26.06698 -80.15565 26 ft 0 kts 270°
2026-05-03 21:30 26.06699 -80.15644 25 ft 20 kts 271°
2026-05-03 21:30 26.06699 -80.15681 25 ft 0 kts 271°
2026-05-03 21:30 26.06699 -80.15692 25 ft 3 kts 268°
2026-05-03 21:31 26.06699 -80.15716 25 ft 0 kts 269°
2026-05-03 21:32 26.06699 -80.15717 25 ft 0 kts 269°
2026-05-03 21:32 26.06699 -80.15728 25 ft 2 kts 272°
2026-05-03 21:32 26.06699 -80.15732 25 ft 0 kts 272°
2026-05-03 21:34 26.06699 -80.15735 25 ft 0 kts 272°
2026-05-03 21:34 26.06699 -80.15736 25 ft 1 kts 272°
2026-05-03 21:34 26.06699 -80.15754 24 ft 4 kts 267°
2026-05-03 21:35 26.06698 -80.15774 24 ft 0 kts 269°
2026-05-03 21:35 26.06698 -80.15780 24 ft 4 kts 269°
2026-05-03 21:35 26.06688 -80.15808 23 ft 4 kts 225°
2026-05-03 21:35 26.06674 -80.15819 23 ft 0 kts 201°
2026-05-03 21:37 26.06656 -80.15824 22 ft 9 kts 181°
2026-05-03 21:37 26.06601 -80.15810 22 ft 8 kts 147°
2026-05-03 21:38 26.06588 -80.15768 22 ft 0 kts 89°
2026-05-03 21:38 26.06585 -80.15678 26 ft 51 kts 100°
2026-05-03 21:39 26.06510 -80.15111 312 ft 88 kts 116°
2026-05-03 21:39 26.06271 -80.14406 757 ft 101 kts 120°
2026-05-03 21:39 26.05737 -80.14204 1194 ft 106 kts 240°
2026-05-03 21:39 26.05929 -80.14731 1676 ft 94 kts 24°
2026-05-03 21:40 26.06364 -80.14117 1905 ft 122 kts 65°
2026-05-03 21:40 26.06931 -80.13297 1961 ft 142 kts 57°
2026-05-03 21:40 26.07577 -80.12435 2066 ft 148 kts 55°
2026-05-03 21:40 26.08142 -80.11478 2231 ft 149 kts 70°
2026-05-03 21:41 26.08475 -80.10391 2395 ft 149 kts 86°
2026-05-03 21:41 26.08541 -80.09243 2566 ft 150 kts 102°
2026-05-03 21:41 26.08332 -80.08109 2735 ft 150 kts 118°
2026-05-03 21:41 26.07898 -80.07046 2853 ft 153 kts 123°
2026-05-03 21:42 26.07468 -80.05949 2952 ft 156 kts 122°
2026-05-03 21:42 26.07054 -80.04833 3056 ft 156 kts 122°
2026-05-03 21:42 26.06641 -80.03719 3161 ft 156 kts 122°
2026-05-03 21:42 26.06221 -80.02610 3274 ft 156 kts 122°
2026-05-03 21:43 26.05937 -80.01873 3343 ft 157 kts 122°
2026-05-03 21:43 26.05526 -80.00744 3500 ft 153 kts 126°
2026-05-03 21:43 26.05025 -79.99681 3591 ft 159 kts 123°
2026-05-03 21:43 26.04593 -79.98531 3687 ft 166 kts 121°
2026-05-03 21:44 26.04135 -79.97327 3804 ft 172 kts 120°
2026-05-03 21:44 26.03665 -79.96083 3941 ft 177 kts 121°
2026-05-03 21:44 26.03187 -79.94813 4058 ft 180 kts 121°
2026-05-03 21:44 26.02687 -79.93487 3986 ft 188 kts 119°
2026-05-03 21:45 26.02178 -79.92140 3983 ft 189 kts 119°
2026-05-03 21:45 26.01674 -79.90783 3986 ft 190 kts 119°
2026-05-03 21:45 26.01168 -79.89422 3977 ft 192 kts 119°
2026-05-03 21:45 26.00657 -79.88045 3977 ft 193 kts 119°
2026-05-03 21:46 26.00143 -79.86666 3982 ft 193 kts 119°
2026-05-03 21:46 25.99628 -79.85282 3982 ft 194 kts 119°
2026-05-03 21:46 25.99117 -79.83915 3979 ft 194 kts 118°
2026-05-03 21:46 25.98602 -79.82529 3981 ft 194 kts 119°
2026-05-03 21:47 25.98090 -79.81148 3978 ft 194 kts 119°
2026-05-03 21:47 25.97577 -79.79765 3978 ft 193 kts 118°
2026-05-03 21:47 25.97066 -79.78384 3981 ft 192 kts 119°
2026-05-03 21:47 25.96558 -79.77017 3979 ft 192 kts 119°
2026-05-03 21:48 25.96043 -79.75646 3976 ft 192 kts 120°
2026-05-03 21:48 25.95452 -79.74332 4034 ft 186 kts 141°
2026-05-03 21:48 25.94314 -79.73979 4059 ft 177 kts 201°
2026-05-03 21:48 25.93156 -79.74495 3989 ft 178 kts 213°
2026-05-03 21:49 25.92053 -79.75086 3982 ft 178 kts 213°
2026-05-03 21:49 25.90944 -79.75690 3979 ft 177 kts 214°
2026-05-03 21:49 25.89835 -79.76297 3981 ft 177 kts 214°
2026-05-03 21:49 25.88731 -79.76905 3976 ft 177 kts 213°
2026-05-03 21:50 25.87631 -79.77516 3978 ft 177 kts 214°
2026-05-03 21:50 25.86532 -79.78123 3974 ft 177 kts 214°
2026-05-03 21:50 25.85431 -79.78728 3979 ft 176 kts 214°
2026-05-03 21:50 25.84329 -79.79319 3970 ft 177 kts 210°
2026-05-03 21:51 25.83175 -79.79788 3973 ft 177 kts 205°
2026-05-03 21:51 25.81974 -79.80117 3975 ft 177 kts 201°
2026-05-03 21:51 25.80780 -79.80457 3978 ft 178 kts 203°
2026-05-03 21:51 25.79579 -79.80813 3976 ft 178 kts 202°
2026-05-03 21:52 25.78382 -79.81174 3979 ft 178 kts 203°
2026-05-03 21:52 25.77184 -79.81533 3978 ft 179 kts 203°
2026-05-03 21:52 25.75996 -79.81892 3980 ft 179 kts 204°
2026-05-03 21:52 25.74861 -79.82423 3985 ft 177 kts 213°
2026-05-03 21:53 25.73747 -79.83025 3979 ft 177 kts 214°
2026-05-03 21:53 25.72642 -79.83632 3979 ft 177 kts 214°
2026-05-03 21:53 25.71537 -79.84240 3978 ft 177 kts 214°
2026-05-03 21:53 25.70434 -79.84847 3979 ft 177 kts 214°
2026-05-03 21:54 25.69333 -79.85451 3978 ft 177 kts 214°
2026-05-03 21:54 25.68226 -79.86057 3977 ft 177 kts 214°
2026-05-03 21:54 25.67125 -79.86665 3978 ft 177 kts 214°
2026-05-03 21:54 25.66022 -79.87275 3974 ft 177 kts 214°
2026-05-03 21:55 25.64923 -79.87887 3975 ft 177 kts 214°
2026-05-03 21:55 25.63820 -79.88501 3974 ft 177 kts 214°
2026-05-03 21:55 25.62717 -79.89113 3974 ft 177 kts 210°
2026-05-03 21:55 25.61537 -79.89535 3997 ft 180 kts 198°
2026-05-03 21:56 25.60346 -79.89938 3999 ft 181 kts 200°
2026-05-03 21:56 25.59150 -79.90351 4041 ft 180 kts 202°
2026-05-03 21:56 25.57994 -79.90865 4040 ft 181 kts 204°
2026-05-03 21:56 25.56800 -79.91342 4012 ft 182 kts 202°
2026-05-03 21:57 25.55604 -79.91804 4013 ft 182 kts 202°
2026-05-03 21:57 25.54412 -79.92269 4014 ft 182 kts 202°
2026-05-03 21:57 25.53219 -79.92737 4013 ft 182 kts 202°
2026-05-03 21:57 25.52025 -79.93204 4012 ft 182 kts 202°
2026-05-03 21:58 25.50997 -79.93949 4015 ft 178 kts 232°
2026-05-03 21:58 25.50254 -79.95045 4006 ft 179 kts 231°
2026-05-03 21:58 25.49372 -79.95993 4177 ft 172 kts 223°
2026-05-03 21:58 25.48472 -79.96818 4446 ft 165 kts 221°
2026-05-03 21:59 25.47595 -79.97615 4718 ft 161 kts 222°
2026-05-03 21:59 25.46751 -79.98390 4980 ft 159 kts 223°
2026-05-03 21:59 25.45902 -79.99171 5241 ft 158 kts 222°
2026-05-03 21:59 25.45060 -79.99947 5511 ft 157 kts 223°
2026-05-03 22:00 25.44221 -80.00719 5779 ft 156 kts 222°
2026-05-03 22:00 25.43388 -80.01487 6047 ft 155 kts 222°
2026-05-03 22:00 25.42561 -80.02246 6324 ft 155 kts 223°
2026-05-03 22:00 25.41735 -80.03008 6584 ft 154 kts 222°
2026-05-03 22:01 25.40912 -80.03764 6841 ft 153 kts 223°
2026-05-03 22:01 25.40092 -80.04519 7098 ft 154 kts 223°
2026-05-03 22:01 25.39269 -80.05276 7358 ft 154 kts 223°
2026-05-03 22:01 25.38457 -80.06022 7616 ft 154 kts 223°
2026-05-03 22:02 25.37660 -80.06753 7875 ft 144 kts 223°
2026-05-03 22:02 25.36884 -80.07466 8004 ft 151 kts 223°
2026-05-03 22:02 25.36050 -80.08237 8005 ft 160 kts 223°
2026-05-03 22:02 25.35179 -80.09037 8006 ft 164 kts 223°
2026-05-03 22:03 25.34291 -80.09851 8010 ft 167 kts 223°
2026-05-03 22:03 25.33393 -80.10676 8009 ft 168 kts 223°
2026-05-03 22:03 25.32490 -80.11503 8008 ft 169 kts 223°
2026-05-03 22:03 25.31588 -80.12331 8008 ft 168 kts 223°
2026-05-03 22:04 25.30687 -80.13157 7999 ft 168 kts 223°
2026-05-03 22:04 25.29786 -80.13984 8002 ft 168 kts 223°
2026-05-03 22:04 25.28886 -80.14811 8003 ft 168 kts 223°
2026-05-03 22:04 25.27984 -80.15638 8005 ft 169 kts 223°
2026-05-03 22:05 25.27080 -80.16467 8002 ft 169 kts 223°
2026-05-03 22:05 25.26176 -80.17296 8012 ft 168 kts 223°
2026-05-03 22:05 25.25277 -80.18117 8012 ft 167 kts 223°
2026-05-03 22:05 25.24385 -80.18936 8013 ft 167 kts 223°
2026-05-03 22:06 25.23497 -80.19750 8015 ft 169 kts 223°
2026-05-03 22:06 25.22593 -80.20578 8016 ft 169 kts 223°
2026-05-03 22:06 25.21684 -80.21412 8018 ft 170 kts 223°
2026-05-03 22:06 25.20772 -80.22246 8014 ft 169 kts 223°
2026-05-03 22:07 25.19869 -80.23072 8013 ft 168 kts 223°
2026-05-03 22:07 25.18968 -80.23897 8004 ft 168 kts 223°
2026-05-03 22:07 25.18067 -80.24721 8005 ft 168 kts 223°
2026-05-03 22:07 25.17180 -80.25533 8004 ft 168 kts 223°
2026-05-03 22:08 25.16282 -80.26354 8004 ft 167 kts 223°
2026-05-03 22:08 25.15385 -80.27175 8006 ft 167 kts 223°
2026-05-03 22:08 25.14487 -80.27997 8006 ft 168 kts 223°
2026-05-03 22:08 25.13587 -80.28819 8005 ft 168 kts 223°
2026-05-03 22:09 25.12687 -80.29642 8005 ft 168 kts 223°
2026-05-03 22:09 25.11786 -80.30466 8005 ft 168 kts 223°
2026-05-03 22:09 25.10884 -80.31289 8005 ft 168 kts 223°
2026-05-03 22:10 25.09085 -80.32933 8005 ft 168 kts 223°
2026-05-03 22:10 25.08185 -80.33754 8004 ft 168 kts 223°
2026-05-03 22:10 25.07286 -80.34575 8001 ft 168 kts 223°
2026-05-03 22:10 25.06398 -80.35385 8002 ft 167 kts 223°
2026-05-03 22:11 25.05500 -80.36205 8002 ft 168 kts 223°
2026-05-03 22:11 25.04600 -80.37027 8001 ft 168 kts 223°
2026-05-03 22:11 25.03701 -80.37847 8002 ft 168 kts 223°
2026-05-03 22:11 25.02799 -80.38669 8002 ft 168 kts 223°
2026-05-03 22:12 25.01899 -80.39490 8001 ft 168 kts 223°
2026-05-03 22:12 25.00998 -80.40311 8003 ft 168 kts 223°
2026-05-03 22:12 25.00094 -80.41136 8003 ft 169 kts 223°
2026-05-03 22:12 24.99187 -80.41962 8000 ft 169 kts 223°
2026-05-03 22:13 24.98277 -80.42791 8005 ft 169 kts 222°
2026-05-03 22:13 24.97371 -80.43618 8002 ft 169 kts 223°
2026-05-03 22:13 24.96473 -80.44435 8002 ft 169 kts 223°
2026-05-03 22:13 24.95565 -80.45263 8004 ft 169 kts 222°
2026-05-03 22:14 24.94657 -80.46088 8001 ft 169 kts 223°
2026-05-03 22:14 24.93749 -80.46915 8004 ft 169 kts 222°
2026-05-03 22:14 24.92840 -80.47742 8002 ft 169 kts 223°
2026-05-03 22:14 24.91931 -80.48570 8001 ft 169 kts 223°
2026-05-03 22:15 24.91022 -80.49396 8002 ft 170 kts 223°
2026-05-03 22:15 24.90113 -80.50224 8002 ft 169 kts 223°
2026-05-03 22:15 24.89204 -80.51050 8004 ft 169 kts 223°
2026-05-03 22:15 24.88295 -80.51877 8002 ft 169 kts 222°
2026-05-03 22:16 24.87386 -80.52703 8001 ft 169 kts 223°
2026-05-03 22:16 24.86475 -80.53531 8003 ft 169 kts 222°
2026-05-03 22:16 24.85566 -80.54357 8004 ft 169 kts 223°
2026-05-03 22:16 24.84659 -80.55180 8005 ft 169 kts 223°
2026-05-03 22:17 24.83751 -80.56005 8006 ft 169 kts 223°
2026-05-03 22:17 24.82856 -80.56819 8008 ft 169 kts 223°
2026-05-03 22:17 24.82087 -80.57780 8009 ft 167 kts 239°
2026-05-03 22:17 24.81632 -80.58951 8011 ft 167 kts 254°
2026-05-03 22:18 24.81325 -80.60179 8014 ft 168 kts 254°
2026-05-03 22:18 24.81079 -80.61444 8015 ft 171 kts 265°
2026-05-03 22:18 24.80990 -80.62757 8012 ft 173 kts 260°
2026-05-03 22:18 24.80720 -80.64051 8013 ft 173 kts 254°
2026-05-03 22:19 24.80382 -80.65323 8010 ft 173 kts 253°
2026-05-03 22:19 24.80037 -80.66598 8010 ft 174 kts 253°
2026-05-03 22:19 24.79697 -80.67876 8012 ft 174 kts 253°
2026-05-03 22:19 24.79360 -80.69152 8010 ft 174 kts 253°
2026-05-03 22:20 24.79026 -80.70415 8009 ft 174 kts 254°
2026-05-03 22:20 24.78687 -80.71695 8009 ft 174 kts 253°
2026-05-03 22:20 24.78349 -80.72970 8009 ft 174 kts 253°
2026-05-03 22:20 24.78010 -80.74247 8008 ft 174 kts 254°
2026-05-03 22:21 24.77673 -80.75521 8008 ft 174 kts 253°
2026-05-03 22:21 24.77335 -80.76799 8007 ft 174 kts 253°
2026-05-03 22:21 24.76996 -80.78075 8006 ft 173 kts 253°
2026-05-03 22:21 24.76658 -80.79348 8007 ft 173 kts 253°
2026-05-03 22:22 24.76321 -80.80620 8005 ft 173 kts 254°
2026-05-03 22:22 24.75986 -80.81877 8005 ft 173 kts 253°
2026-05-03 22:22 24.75649 -80.83149 8007 ft 173 kts 253°
2026-05-03 22:22 24.75310 -80.84423 8005 ft 174 kts 253°
2026-05-03 22:23 24.74971 -80.85697 8005 ft 174 kts 253°
2026-05-03 22:23 24.74632 -80.86975 8004 ft 174 kts 253°
2026-05-03 22:23 24.74293 -80.88250 8004 ft 173 kts 253°
2026-05-03 22:23 24.73952 -80.89526 8010 ft 173 kts 253°
2026-05-03 22:24 24.73612 -80.90805 8006 ft 174 kts 253°
2026-05-03 22:24 24.73273 -80.92086 8010 ft 175 kts 254°
2026-05-03 22:24 24.72929 -80.93371 8001 ft 175 kts 254°
2026-05-03 22:24 24.72584 -80.94659 8002 ft 176 kts 253°
2026-05-03 22:25 24.72241 -80.95948 7999 ft 176 kts 254°
2026-05-03 22:25 24.71897 -80.97235 7996 ft 175 kts 254°
2026-05-03 22:25 24.71556 -80.98518 7995 ft 174 kts 254°
2026-05-03 22:25 24.71215 -80.99796 7999 ft 174 kts 254°
2026-05-03 22:26 24.70871 -81.01079 8000 ft 175 kts 253°
2026-05-03 22:26 24.70529 -81.02363 7999 ft 175 kts 254°
2026-05-03 22:26 24.70190 -81.03630 7998 ft 175 kts 254°
2026-05-03 22:26 24.69848 -81.04911 8000 ft 175 kts 253°
2026-05-03 22:27 24.69505 -81.06195 7999 ft 174 kts 254°
2026-05-03 22:27 24.69161 -81.07476 7998 ft 174 kts 254°
2026-05-03 22:27 24.68819 -81.08757 7998 ft 175 kts 254°
2026-05-03 22:27 24.68476 -81.10040 7999 ft 175 kts 254°
2026-05-03 22:28 24.68131 -81.11324 7998 ft 175 kts 254°
2026-05-03 22:28 24.67788 -81.12605 8002 ft 174 kts 254°
2026-05-03 22:28 24.67445 -81.13887 8001 ft 175 kts 254°
2026-05-03 22:28 24.67105 -81.15152 7999 ft 175 kts 254°
2026-05-03 22:29 24.66761 -81.16435 7998 ft 174 kts 254°
2026-05-03 22:29 24.66417 -81.17717 8001 ft 174 kts 254°
2026-05-03 22:29 24.66073 -81.18998 8001 ft 175 kts 253°
2026-05-03 22:29 24.65729 -81.20283 8003 ft 175 kts 254°
2026-05-03 22:30 24.65385 -81.21561 7999 ft 175 kts 254°
2026-05-03 22:30 24.65040 -81.22843 7999 ft 175 kts 254°
2026-05-03 22:30 24.64701 -81.24107 7998 ft 174 kts 253°
2026-05-03 22:30 24.64363 -81.25388 8000 ft 175 kts 254°
2026-05-03 22:31 24.64036 -81.26679 7949 ft 177 kts 255°
2026-05-03 22:31 24.63695 -81.28023 7660 ft 183 kts 255°
2026-05-03 22:31 24.63380 -81.29267 7368 ft 158 kts 254°
2026-05-03 22:31 24.63192 -81.30009 7173 ft 144 kts 254°
2026-05-03 22:32 24.62940 -81.31007 6660 ft 132 kts 254°
2026-05-03 22:32 24.62627 -81.32237 5830 ft 121 kts 253°
2026-05-03 22:32 24.62476 -81.32831 5408 ft 118 kts 253°
2026-05-03 22:32 24.62258 -81.33684 4793 ft 114 kts 252°
2026-05-03 22:33 24.62046 -81.34514 4170 ft 112 kts 253°
2026-05-03 22:33 24.61796 -81.35475 4013 ft 148 kts 253°
2026-05-03 22:33 24.61498 -81.36628 4016 ft 164 kts 253°
2026-05-03 22:33 24.61185 -81.37865 4009 ft 170 kts 253°
2026-05-03 22:34 24.60869 -81.39114 4010 ft 173 kts 254°
2026-05-03 22:34 24.60545 -81.40390 4011 ft 173 kts 253°
2026-05-03 22:34 24.60219 -81.41675 3892 ft 173 kts 254°
2026-05-03 22:34 24.59901 -81.42921 3760 ft 167 kts 254°
2026-05-03 22:35 24.59588 -81.44144 3610 ft 165 kts 254°
2026-05-03 22:35 24.59279 -81.45355 3461 ft 163 kts 253°
2026-05-03 22:35 24.58973 -81.46544 3315 ft 161 kts 254°
2026-05-03 22:35 24.58673 -81.47724 3171 ft 160 kts 254°
2026-05-03 22:36 24.58369 -81.48908 3026 ft 161 kts 255°
2026-05-03 22:36 24.58076 -81.50057 3014 ft 155 kts 254°
2026-05-03 22:36 24.57784 -81.51193 3013 ft 154 kts 254°
2026-05-03 22:36 24.57496 -81.52319 3013 ft 152 kts 254°
2026-05-03 22:37 24.57209 -81.53439 3012 ft 152 kts 254°
2026-05-03 22:37 24.56924 -81.54551 3010 ft 151 kts 253°
2026-05-03 22:37 24.56639 -81.55661 3009 ft 151 kts 254°
2026-05-03 22:37 24.56354 -81.56771 3002 ft 151 kts 254°
2026-05-03 22:38 24.56070 -81.57880 3007 ft 150 kts 255°
2026-05-03 22:38 24.55787 -81.58985 3003 ft 150 kts 254°
2026-05-03 22:38 24.55503 -81.60091 3005 ft 151 kts 254°
2026-05-03 22:38 24.55218 -81.61201 3005 ft 151 kts 254°
2026-05-03 22:39 24.54942 -81.62276 3001 ft 150 kts 254°
2026-05-03 22:39 24.54656 -81.63388 3007 ft 157 kts 253°
2026-05-03 22:39 24.54351 -81.64574 3006 ft 168 kts 255°
2026-05-03 22:39 24.54028 -81.65831 3011 ft 173 kts 254°
2026-05-03 22:40 24.53699 -81.67111 3006 ft 175 kts 254°
2026-05-03 22:40 24.53367 -81.68400 3007 ft 176 kts 255°
2026-05-03 22:40 24.53033 -81.69700 3009 ft 177 kts 254°
2026-05-03 22:40 24.52697 -81.71001 3001 ft 178 kts 254°
2026-05-03 22:41 24.52357 -81.72320 3006 ft 180 kts 253°
2026-05-03 22:41 24.52018 -81.73635 2997 ft 178 kts 254°
2026-05-03 22:41 24.51683 -81.74940 3000 ft 177 kts 254°
2026-05-03 22:41 24.51347 -81.76236 3001 ft 177 kts 254°
2026-05-03 22:42 24.51013 -81.77533 2998 ft 176 kts 254°
2026-05-03 22:42 24.50678 -81.78834 2999 ft 177 kts 254°
2026-05-03 22:42 24.50342 -81.80135 3001 ft 178 kts 254°
2026-05-03 22:42 24.50001 -81.81457 2993 ft 181 kts 253°
2026-05-03 22:43 24.49656 -81.82788 2991 ft 181 kts 254°
2026-05-03 22:43 24.49312 -81.84118 2995 ft 181 kts 254°
2026-05-03 22:43 24.48967 -81.85450 2995 ft 181 kts 255°
2026-05-03 22:43 24.48627 -81.86766 3000 ft 182 kts 254°
2026-05-03 22:44 24.48281 -81.88103 3000 ft 182 kts 254°
2026-05-03 22:44 24.47935 -81.89437 2980 ft 182 kts 254°
2026-05-03 22:44 24.47607 -81.90710 2953 ft 165 kts 254°
2026-05-03 22:44 24.47297 -81.91900 2924 ft 161 kts 255°
2026-05-03 22:45 24.47027 -81.93093 2899 ft 161 kts 263°
2026-05-03 22:45 24.47114 -81.94318 2848 ft 164 kts 284°
2026-05-03 22:45 24.47634 -81.95455 2756 ft 171 kts 306°
2026-05-03 22:45 24.48547 -81.96315 2665 ft 177 kts 329°
2026-05-03 22:46 24.49734 -81.96708 2609 ft 180 kts 352°
2026-05-03 22:46 24.50975 -81.96727 2610 ft 176 kts 358°
2026-05-03 22:46 24.52210 -81.96733 2479 ft 179 kts 356°
2026-05-03 22:46 24.53445 -81.96499 2363 ft 184 kts 19°
2026-05-03 22:47 24.54501 -81.95736 2250 ft 186 kts 44°
2026-05-03 22:47 24.55208 -81.94564 2132 ft 185 kts 68°
2026-05-03 22:47 24.55435 -81.93326 1995 ft 145 kts 90°
2026-05-03 22:47 24.55437 -81.92332 1852 ft 116 kts 90°
2026-05-03 22:48 24.55448 -81.91474 1738 ft 115 kts 89°
2026-05-03 22:48 24.55460 -81.90576 1615 ft 120 kts 89°
2026-05-03 22:48 24.55470 -81.89647 1492 ft 122 kts 90°
2026-05-03 22:48 24.55480 -81.88703 1369 ft 124 kts 89°
2026-05-03 22:49 24.55492 -81.87751 1248 ft 125 kts 88°
2026-05-03 22:49 24.55502 -81.86811 1123 ft 124 kts 88°
2026-05-03 22:49 24.55511 -81.85868 1002 ft 123 kts 89°
2026-05-03 22:49 24.55522 -81.84930 884 ft 123 kts 88°
2026-05-03 22:50 24.55530 -81.84033 784 ft 101 kts 88°
2026-05-03 22:50 24.55526 -81.83204 780 ft 117 kts 92°
2026-05-03 22:50 24.55474 -81.82357 848 ft 101 kts 92°
2026-05-03 22:50 24.55419 -81.81628 823 ft 94 kts 89°
2026-05-03 22:51 24.55443 -81.80925 792 ft 92 kts 87°
2026-05-03 22:51 24.55416 -81.80215 746 ft 96 kts 91°
2026-05-03 22:51 24.55425 -81.79492 657 ft 91 kts 86°
2026-05-03 22:51 24.55438 -81.78821 538 ft 84 kts 84°
2026-05-03 22:52 24.55416 -81.78182 407 ft 85 kts 89°
2026-05-03 22:52 24.55414 -81.77548 255 ft 81 kts 83°
2026-05-03 22:52 24.55390 -81.76951 113 ft 76 kts 89°
2026-05-03 22:52 24.55359 -81.76392 18 ft 68 kts 95°
2026-05-03 22:53 24.55335 -81.75852 178 ft 82 kts 89°
2026-05-03 22:53 24.55364 -81.75208 272 ft 88 kts 85°
2026-05-03 22:53 24.55395 -81.74552 358 ft 85 kts 92°
2026-05-03 22:53 24.54916 -81.74002 649 ft 116 kts 161°
2026-05-03 22:54 24.54153 -81.74179 814 ft 114 kts 220°
2026-05-03 22:54 24.53776 -81.74915 888 ft 111 kts 251°
2026-05-03 22:54 24.53551 -81.75720 962 ft 109 kts 257°
2026-05-03 22:54 24.53388 -81.76425 1005 ft 108 kts 257°
2026-05-03 22:55 24.53220 -81.77218 1038 ft 103 kts 259°
2026-05-03 22:55 24.53072 -81.77963 977 ft 97 kts 260°
2026-05-03 22:55 24.52916 -81.78619 921 ft 84 kts 256°
2026-05-03 22:55 24.52771 -81.79207 925 ft 82 kts 257°
2026-05-03 22:56 24.52819 -81.79866 1091 ft 95 kts 308°
2026-05-03 22:56 24.53474 -81.79999 1074 ft 108 kts 19°
2026-05-03 22:56 24.54095 -81.79663 919 ft 92 kts 24°
2026-05-03 22:56 24.54598 -81.79318 800 ft 80 kts 39°
2026-05-03 22:57 24.54963 -81.78832 652 ft 87 kts 59°
2026-05-03 22:57 24.55197 -81.78222 477 ft 84 kts 69°
2026-05-03 22:57 24.55352 -81.77590 273 ft 84 kts 78°
2026-05-03 22:57 24.55371 -81.76991 125 ft 76 kts 86°
2026-05-03 22:58 24.55361 -81.76428 18 ft 70 kts 94°
2026-05-03 22:58 24.55345 -81.76090 14 ft 12 kts 88°
2026-05-03 22:58 24.55353 -81.75914 15 ft 15 kts 69°
2026-05-03 22:58 24.55383 -81.75865 16 ft 4 kts 41°
2026-05-03 22:59 24.55393 -81.75855 16 ft 2 kts 55°
2026-05-03 22:59 24.55394 -81.75833 17 ft 22 kts 98°